Tracking 19564 objects as of 19-Mar-2019
HD Live streaming from Space Station
objects crossing your sky now

LEMUR 2 DAISY-HARPER

Track LEMUR 2 DAISY-HARPER now!
10-day predictions
LEMUR 2 DAISY-HARPER is classified as:


NORAD ID: 43889
Int'l Code: 2018-111P
Perigee: 576.1 km
Apogee: 591.5 km
Inclination: 97.7 °
Period: 96.2 minutes
Semi major axis: 6954 km
RCS: Unknown
Launch date: December 27, 2018
Source: United States (US)
Launch site: VOSTOCHNY COSMODROME (VOSTO)
aabbcc
Your satellite tracking list
Your tracking list is empty




NASA's NSSDC Master Catalog

Two Line Element Set (TLE):
1 43889U 18111P   19077.90607212 +.00001069 +00000-0 +98282-4 0  9994
2 43889 097.7278 347.3659 0011059 336.3136 023.7575 14.96843069012217
Source of the keplerian elements: AFSPC